GW5031 Weather Reports


time (UTC)temp
C
wind
direction
speed
KPH
gust
KPH
rain 1hr
cm
rain 24hr
cm
rain mn
cm
humidity
%
barometer
mb
20260506091915 14 162 0.0 6.4 0.00 0.00 0.00 74 1012.0
20260506090916 15 294 3.2 6.4 0.00 0.00 0.00 74 1011.9
20260506090414 14 235 1.6 8.0 0.00 0.00 0.00 73 1011.9
20260506085915 14 334 1.6 8.0 0.00 0.00 0.00 74 1011.8
20260506085414 15 7 3.2 8.0 0.00 0.00 0.00 73 1011.8
20260506084345 15 281 0.0 12.9 0.00 0.00 0.00 74 1011.8
20260506083844 15 66 3.2 6.4 0.00 0.00 0.00 73 1011.6
20260506083344 15 119 0.0 8.0 0.00 0.00 0.00 74 1011.5
20260506082844 14 280 3.2 8.0 0.00 0.00 0.00 74 1011.6
20260506082344 14 16 3.2 6.4 0.00 0.00 0.00 75 1011.6
20260506081314 14 283 0.0 6.4 0.00 0.00 0.00 75 1011.0
20260506080813 14 229 0.0 8.0 0.00 0.00 0.00 75 1011.2
20260506080314 14 189 1.6 8.0 0.00 0.00 0.00 75 1011.3
20260506073241 15 236 1.6 8.0 0.00 0.00 0.00 75 1011.3
20260506072742 15 62 1.6 9.7 0.00 0.00 0.00 76 1011.6
20260506072242 15 138 3.2 9.7 0.00 0.00 0.00 75 1011.5
20260506071742 15 27 4.8 9.7 0.00 0.00 0.00 75 1011.6
20260506071212 15 24 3.2 8.0 0.00 0.00 0.00 76 1011.3
20260506070711 15 125 1.6 9.7 0.00 0.00 0.00 76 1011.3
20260506070211 15 331 1.6 9.7 0.00 0.00 0.00 76 1011.4
20260506062140 15 202 3.2 9.7 0.00 0.00 0.00 76 1011.5
20260506061640 16 353 3.2 9.7 0.00 0.00 0.00 75 1011.2
20260506061110 16 302 3.2 9.7 0.00 0.00 0.00 76 1011.2
20260506060609 16 284 1.6 9.7 0.00 0.00 0.00 76 1011.2
20260506060109 16 147 3.2 8.0 0.00 0.00 0.00 76 1011.4
20260506051038 16 4 1.6 9.7 0.00 0.00 0.00 77 1011.4
20260506045007 17 42 6.4 14.5 0.00 0.00 0.00 77 1011.2
20260506044006 17 4 8.0 14.5 0.00 0.00 0.00 77 1011.0
20260506043437 17 224 6.4 14.5 0.00 0.00 0.00 77 1011.0
20260506042936 17 253 3.2 11.3 0.00 0.00 0.00 76 1010.9
20260506042437 17 126 3.2 14.5 0.00 0.00 0.00 76 1011.0
20260506041935 17 33 4.8 14.5 0.00 0.00 0.00 77 1011.0
20260506041437 17 327 4.8 17.7 0.00 0.00 0.00 77 1010.7
20260506040406 18 312 1.6 11.3 0.00 0.00 0.00 76 1010.4
20260506035905 18 316 6.4 9.7 0.00 0.00 0.00 76 1010.6
20260506035406 18 262 8.0 9.7 0.00 0.00 0.00 76 1010.6
20260506034905 18 327 3.2 11.3 0.00 0.00 0.00 76 1010.5
20260506033904 18 310 8.0 20.9 0.00 0.00 0.00 75 1010.2
20260506033334 19 321 8.0 9.7 0.00 0.00 0.00 75 1010.2
20260506032835 20 351 9.7 11.3 0.00 0.00 0.00 75 1010.2
20260506031834 20 305 4.8 6.4 0.00 0.00 0.00 75 1009.9
20260506031334 20 315 6.4 9.7 0.00 0.00 0.00 74 1009.7
20260506030834 20 344 6.4 11.3 0.00 0.00 0.00 74 1009.4
20260506030304 20 331 4.8 12.9 0.00 0.00 0.00 74 1009.9
20260506025306 21 261 4.8 12.9 0.00 0.00 0.00 74 1009.6
20260506024803 21 353 6.4 12.9 0.00 0.00 0.00 73 1009.4
20260506024302 21 318 4.8 6.4 0.00 0.00 0.00 73 1009.1
20260506023803 21 318 4.8 8.0 0.00 0.00 0.00 73 1008.8
20260506023303 21 312 3.2 8.0 0.00 0.00 0.00 73 1008.8
20260506022703 21 312 3.2 14.5 0.00 0.00 0.00 73 1008.6
20260506022132 21 312 3.2 14.5 0.00 0.00 0.00 73 1008.7
20260506021632 22 347 6.4 11.3 0.00 0.00 0.00 73 1008.6
20260506020632 22 6 3.2 6.4 0.00 0.00 0.00 71 1007.9
20260506020133 22 240 3.2 8.0 0.00 0.00 0.00 70 1007.8
20260506015602 22 47 4.8 8.0 0.00 0.00 0.00 70 1007.9
20260506015102 22 19 4.8 9.7 0.00 0.00 0.00 69 1008.0
20260506014602 23 9 9.7 9.7 0.00 0.00 0.00 68 1007.8
20260506014102 23 9 9.7 9.7 0.00 0.00 0.00 68 1007.5
20260506013601 23 157 3.2 6.4 0.00 0.00 0.00 68 1007.8
20260506012531 23 157 3.2 6.4 0.00 0.00 0.00 67 1007.7
20260506012030 23 157 3.2 6.4 0.00 0.00 0.00 67 1007.7
20260506011530 23 157 3.2 6.4 0.00 0.00 0.00 67 1007.7
20260506010530 23 157 3.2 6.4 0.00 0.00 0.00 67 1007.5
20260506010030 23 274 3.2 9.7 0.00 0.00 0.00 67 1007.2
20260506005500 23 274 3.2 14.5 0.00 0.00 0.00 66 1006.9
20260506005000 23 307 3.2 14.5 0.00 0.00 0.00 67 1007.1
20260506004459 24 12 6.4 9.7 0.00 0.00 0.00 67 1007.0
20260506004000 24 342 9.7 9.7 0.00 0.00 0.00 67 1006.8
20260506003459 26 3 8.0 8.0 0.00 0.00 0.00 63 1006.7
20260506002429 26 3 8.0 8.0 0.00 0.00 0.00 63 1006.9
20260506001428 26 3 8.0 12.9 0.00 0.00 0.00 63 1006.9
20260506000928 26 271 8.0 12.9 0.00 0.00 0.00 62 1006.7
20260505235928 26 14 14.5 14.5 0.00 0.00 0.00 62 1006.1
20260505235358 27 14 14.5 14.5 0.00 0.00 0.00 61 1006.0
20260505234858 27 334 8.0 9.7 0.00 0.00 0.00 61 1006.2
20260505234358 27 334 8.0 9.7 0.00 0.00 0.00 60 1006.0
20260505233857 27 268 3.2 9.7 0.00 0.00 0.00 60 1006.2
20260505233358 28 288 8.0 8.0 0.00 0.00 0.00 54 1005.9
20260505232857 28 9 4.8 6.4 0.00 0.00 0.00 54 1006.0
20260505232327 30 9 4.8 6.4 0.00 0.00 0.00 51 1006.0
20260505231827 30 9 4.8 6.4 0.00 0.00 0.00 51 1005.8
20260505231327 30 9 4.8 9.7 0.00 0.00 0.00 51 1005.8
20260505225826 32 230 0.0 3.2 0.00 0.00 0.00 53 1005.1
20260505225326 32 324 0.0 4.8 0.00 0.00 0.00 52 1005.2
20260505224756 32 130 0.0 4.8 0.00 0.00 0.00 53 1005.3
20260505224256 32 112 0.0 4.8 0.00 0.00 0.00 53 1005.2
20260505223756 32 52 0.0 4.8 0.00 0.00 0.00 53 1005.2
20260505223256 32 239 1.6 3.2 0.00 0.00 0.00 51 1005.1
20260505222755 32 306 0.0 3.2 0.00 0.00 0.00 55 1005.0
20260505222255 32 306 0.0 3.2 0.00 0.00 0.00 55 1005.0
20260505221225 32 306 0.0 3.2 0.00 0.00 0.00 55 1004.9
20260505220725 32 306 0.0 3.2 0.00 0.00 0.00 55 1005.0
20260505220225 32 306 0.0 3.2 0.00 0.00 0.00 55 1005.1
20260505215724 32 306 0.0 3.2 0.00 0.00 0.00 55 1005.1
20260505215224 32 306 0.0 3.2 0.00 0.00 0.00 55 1005.2
20260505214154 32 306 0.0 3.2 0.00 0.00 0.00 55 1005.1
20260505213653 33 330 0.0 3.2 0.00 0.00 0.00 53 1005.2
20260505213153 33 330 0.0 3.2 0.00 0.00 0.00 53 1005.3
20260505212653 33 330 0.0 3.2 0.00 0.00 0.00 53 1005.4
20260505212153 33 330 0.0 3.2 0.00 0.00 0.00 53 1005.4
20260505211624 33 179 3.2 3.2 0.00 0.00 0.00 56 1005.4
20260505211124 33 179 3.2 9.7 0.00 0.00 0.00 56 1005.6
20260505210622 33 179 3.2 9.7 0.00 0.00 0.00 56 1005.4
20260505210122 33 87 1.6 8.0 0.00 0.00 0.00 52 1005.5
20260505205622 32 308 0.0 6.4 0.00 0.00 0.00 55 1005.6
20260505205122 32 74 1.6 6.4 0.00 0.00 0.00 56 1005.8
20260505204553 32 111 3.2 14.5 0.00 0.00 0.00 54 1005.6
20260505204052 32 9 4.8 14.5 0.00 0.00 0.00 55 1005.7
20260505203552 32 23 3.2 12.9 0.00 0.00 0.00 54 1006.0
20260505202551 32 346 4.8 8.0 0.00 0.00 0.00 56 1005.9
20260505202052 32 298 3.2 17.7 0.00 0.00 0.00 55 1006.1
20260505201551 32 263 3.2 17.7 0.00 0.00 0.00 55 1006.0
20260505201021 32 139 3.2 9.7 0.00 0.00 0.00 54 1006.1
20260505200521 32 344 3.2 17.7 0.00 0.00 0.00 57 1005.9
20260505200021 32 354 6.4 17.7 0.00 0.00 0.00 55 1006.1
20260505195020 32 157 3.2 9.7 0.00 0.00 0.00 55 1006.2
20260505194520 32 40 8.0 9.7 0.00 0.00 0.00 55 1006.3
20260505193949 32 122 3.2 8.0 0.00 0.00 0.00 57 1006.2
20260505193450 31 296 3.2 8.0 0.00 0.00 0.00 57 1006.1
20260505192950 32 285 3.2 8.0 0.00 0.00 0.00 58 1006.2
20260505192450 31 357 6.4 9.7 0.00 0.00 0.00 57 1006.2
20260505191949 31 10 6.4 9.7 0.00 0.00 0.00 58 1006.3
20260505190920 30 261 1.6 11.3 0.00 0.00 0.00 62 1006.2
20260505185919 31 51 3.2 4.8 0.00 0.00 0.00 62 1006.2
20260505185419 30 151 1.6 8.0 0.00 0.00 0.00 60 1006.4
20260505184918 30 318 3.2 8.0 0.00 0.00 0.00 62 1006.4
20260505184418 30 312 3.2 17.7 0.00 0.00 0.00 62 1006.6
20260505183348 29 340 3.2 6.4 0.00 0.00 0.00 63 1006.5
20260505182348 29 19 1.6 16.1 0.00 0.00 0.00 64 1006.5
20260505181848 29 284 1.6 9.7 0.00 0.00 0.00 63 1006.5
20260505180817 29 254 3.2 9.7 0.00 0.00 0.00 64 1006.5
20260505180316 29 325 1.6 14.5 0.00 0.00 0.00 64 1006.5
20260505175817 28 28 3.2 14.5 0.00 0.00 0.00 63 1006.4
20260505175316 30 39 0.0 12.9 0.00 0.00 0.00 62 1006.3
20260505174317 29 85 3.2 9.7 0.00 0.00 0.00 64 1006.6
20260505173816 29 149 0.0 9.7 0.00 0.00 0.00 64 1006.6
20260505173246 29 70 4.8 8.0 0.00 0.00 0.00 64 1006.6
20260505172746 28 354 0.0 8.0 0.00 0.00 0.00 65 1006.6
20260505172245 29 243 1.6 6.4 0.00 0.00 0.00 64 1006.7
20260505171746 28 10 3.2 6.4 0.00 0.00 0.00 65 1006.9
20260505171245 28 275 3.2 6.4 0.00 0.00 0.00 66 1006.5
20260505170746 28 162 1.6 17.7 0.00 0.00 0.00 68 1006.7
20260505170215 27 327 3.2 17.7 0.00 0.00 0.00 68 1006.6
20260505165715 28 211 1.6 8.0 0.00 0.00 0.00 65 1006.9
20260505165215 28 62 3.2 9.7 0.00 0.00 0.00 66 1006.5
20260505164715 27 134 4.8 9.7 0.00 0.00 0.00 67 1006.6
20260505164214 27 327 4.8 8.0 0.00 0.00 0.00 67 1006.5
20260505163715 27 186 1.6 9.7 0.00 0.00 0.00 68 1006.6
20260505163145 27 29 8.0 14.5 0.00 0.00 0.00 68 1006.5
20260505162143 27 336 0.0 8.0 0.00 0.00 0.00 68 1006.4
20260505161644 28 180 3.2 8.0 0.00 0.00 0.00 66 1006.5
20260505161143 27 180 3.2 8.0 0.00 0.00 0.00 67 1006.6
20260505160643 27 194 3.2 14.5 0.00 0.00 0.00 67 1006.3
20260505160114 27 286 3.2 14.5 0.00 0.00 0.00 67 1006.5
20260505153042 27 104 8.0 9.7 0.00 0.00 0.00 69 1006.4
20260505152542 27 127 3.2 9.7 0.00 0.00 0.00 69 1006.3
20260505152042 27 123 3.2 6.4 0.00 0.00 0.00 70 1006.5
20260505151542 26 204 3.2 6.4 0.00 0.00 0.00 71 1006.6
20260505151042 26 343 3.2 6.4 0.00 0.00 0.00 71 1006.5
20260505140440 23 353 3.2 6.4 0.00 0.00 0.00 80 1006.7
20260505124808 22 344 3.2 9.7 0.00 0.00 0.00 83 1006.1
20260505124307 22 182 3.2 6.4 0.00 0.00 0.00 83 1006.3
20260505123807 22 143 3.2 8.0 0.00 0.00 0.00 83 1005.9
20260505123307 22 2 3.2 9.7 0.00 0.00 0.00 83 1005.8
20260505122806 22 250 1.6 9.7 0.00 0.00 0.00 83 1005.7
20260505122307 22 122 3.2 6.4 0.00 0.00 0.00 83 1005.7
20260505121236 22 350 0.0 8.0 0.00 0.00 0.00 83 1005.7
20260505120736 22 121 3.2 11.3 0.00 0.00 0.00 83 1005.6
20260505120236 22 271 3.2 11.3 0.00 0.00 0.00 83 1005.7
20260505115736 22 45 3.2 6.4 0.00 0.00 0.00 83 1005.6
20260505115236 22 269 0.0 6.4 0.00 0.00 0.00 83 1005.8
20260505114705 22 215 3.2 8.0 0.00 0.00 0.00 83 1005.5
20260505114205 22 62 3.2 9.7 0.00 0.00 0.00 83 1005.6
20260505113204 22 159 3.2 8.0 0.00 0.00 0.00 83 1005.5
20260505112705 22 343 1.6 8.0 0.00 0.00 0.00 83 1005.4
20260505112205 21 92 3.2 6.4 0.00 0.00 0.00 84 1005.7
20260505111634 21 119 1.6 6.4 0.00 0.00 0.00 84 1005.6
20260505111135 21 106 1.6 6.4 0.00 0.00 0.00 84 1005.5
20260505110634 21 141 4.8 9.7 0.00 0.00 0.00 84 1005.5
20260505110134 21 103 3.2 9.7 0.00 0.00 0.00 84 1005.2
20260505102103 22 227 1.6 12.9 0.00 0.00 0.00 83 1005.5
20260505101533 22 32 3.2 6.4 0.00 0.00 0.00 83 1005.7
20260505101032 22 312 1.6 8.0 0.00 0.00 0.00 83 1005.6
20260505100533 22 99 0.0 8.0 0.00 0.00 0.00 83 1005.5
20260505100032 22 185 1.6 8.0 0.00 0.00 0.00 82 1005.6
20260505095532 22 309 1.6 6.4 0.00 0.00 0.00 82 1005.6
20260505095032 22 28 3.2 9.7 0.00 0.00 0.00 82 1005.6
20260505094532 22 154 0.0 9.7 0.00 0.00 0.00 82 1005.5
20260505094001 22 147 1.6 9.7 0.00 0.00 0.00 82 1005.8
20260505093502 22 41 6.4 17.7 0.00 0.00 0.00 82 1006.0